Lancaster, PA

10:11 AM EDT on March 30, 2017 (GMT -0400)
Lancaster

Weather History for KLNS - October, 2012

Change the Weather History Date:

Tuesday, October 2, 2012

  Actual Average Record
Temperature  
Mean Temperature 60 °F -  
Max Temperature 63 °F 70 °F 83 °F (1986)
Min Temperature 57 °F 50 °F 33 °F (1997)
Degree Days  
Heating Degree Days 5    
Growing Degree Days 10 (Base 50)    
Moisture  
Dew Point 58 °F    
Average Humidity 92    
Maximum Humidity 100    
Minimum Humidity 82    
Precipitation  
Precipitation 1.78 in - - ()
Sea Level Pressure  
Sea Level Pressure 29.96 in    
Wind  
Wind Speed 5 mph (ENE)    
Max Wind Speed 9 mph    
Max Gust Speed -    
Visibility 3 miles    
Events Fog , Rain    
Averages and records for this station are not official NWS values.
T = Trace of Precipitation, MM = Missing Value Source: NWS Daily Summary

Daily Weather History Graph

Daily Weather History Graph

Search for Another Location

Airport or City:

Trip Planner

Search our weather history database for the weather conditions in past years. The results will help you decide how hot, cold, wet, or windy it might be!

Date:

Astronomy

Oct. 02, 2012 Rise Set
Actual Time 7:02 AM EDT 6:45 PM EDT
Civil Twilight 6:35 AM EDT 7:12 PM EDT
Nautical Twilight 6:04 AM EDT 7:43 PM EDT
Astronomical Twilight 5:32 AM EDT 8:15 PM EDT
Moon 7:56 PM EDT (10/2) 9:28 AM EDT (10/2)
Length of Visible Light 12h 36m
Length of Day
11h 42m
Waning Gibbous, 94% of the Moon is Illuminated
Oct 2
Waning Gibbous
Oct 8
Last Quarter
Oct 15
New
Oct 21
First Quarter
Oct 29
Full

Hourly Weather History & Observations

Time (EDT) Temp. Dew Point Humidity Pressure Visibility Wind Dir Wind Speed Gust Speed Precip Events Conditions
12:53 AM 60.1 °F 55.0 °F 83% 29.96 in 9.0 mi East 3.5 mph - N/A   Overcast
1:53 AM 60.1 °F 55.9 °F 86% 29.96 in 7.0 mi Calm Calm - 0.00 in Rain Light Rain
3:53 AM 60.1 °F 55.9 °F 86% 29.95 in 6.0 mi East 3.5 mph - N/A   Overcast
4:53 AM 60.1 °F 55.9 °F 86% 29.96 in 6.0 mi East 3.5 mph - N/A   Overcast
5:13 AM 60.8 °F 55.4 °F 82% 29.94 in 6.0 mi East 5.8 mph - N/A   Haze
5:53 AM 60.1 °F 55.9 °F 86% 29.95 in 7.0 mi Calm Calm - 0.00 in   Overcast
6:53 AM 60.1 °F 55.9 °F 86% 29.95 in 6.0 mi ENE 4.6 mph - 0.00 in Rain Light Rain
7:53 AM 59.0 °F 55.9 °F 90% 29.96 in 4.0 mi ENE 4.6 mph - 0.04 in Rain Light Rain
8:08 AM 59.0 °F 55.4 °F 88% 29.96 in 2.5 mi ENE 4.6 mph - 0.01 in Rain Rain
8:21 AM 59.0 °F 55.4 °F 88% 29.96 in 3.0 mi ENE 5.8 mph - 0.03 in Rain Rain
8:53 AM 59.0 °F 55.9 °F 90% 29.96 in 3.0 mi ENE 5.8 mph - 0.04 in Rain Light Rain
9:03 AM 59.0 °F 55.4 °F 88% 29.96 in 1.8 mi NE 5.8 mph - 0.04 in Rain Rain
9:22 AM 57.2 °F 55.4 °F 94% 29.96 in 0.5 mi ENE 5.8 mph - 0.27 in Fog , Rain Heavy Rain
9:44 AM 57.2 °F 57.2 °F 100% 29.98 in 1.0 mi NE 3.5 mph - 0.53 in Rain Light Rain
9:49 AM 59.0 °F 57.2 °F 94% 29.97 in 2.0 mi NE 4.6 mph - 0.54 in Rain Light Rain
9:53 AM 59.0 °F 57.0 °F 93% 29.97 in 1.8 mi ENE 4.6 mph - 0.55 in Rain Rain
10:39 AM 57.2 °F 57.2 °F 100% 29.99 in 0.5 mi NNW 8.1 mph - 0.30 in Fog , Rain Heavy Rain
10:53 AM 59.0 °F 57.0 °F 93% 29.98 in 0.8 mi North 6.9 mph - 0.42 in Rain Heavy Rain
10:58 AM 59.0 °F 57.2 °F 94% 30.00 in 1.0 mi North 6.9 mph - 0.03 in Rain Heavy Rain
11:07 AM 59.0 °F 57.2 °F 94% 30.00 in 0.8 mi NW 4.6 mph - 0.10 in Rain Heavy Rain
11:14 AM 59.0 °F 57.2 °F 94% 29.98 in 1.8 mi NE 8.1 mph - 0.11 in Rain Light Rain
11:17 AM 59.0 °F 57.2 °F 94% 29.98 in 2.0 mi NE 9.2 mph - 0.11 in Rain Light Rain
11:23 AM 59.0 °F 57.2 °F 94% 29.98 in 3.0 mi NE 8.1 mph - 0.11 in Rain Light Rain
11:46 AM 60.8 °F 57.2 °F 88% 29.98 in 2.0 mi ENE 6.9 mph - 0.15 in Rain Heavy Rain
11:53 AM 60.1 °F 57.9 °F 93% 29.97 in 1.5 mi ENE 5.8 mph - 0.20 in Rain Heavy Rain
12:25 PM 60.8 °F 59.0 °F 94% 29.97 in 1.8 mi ENE 8.1 mph - 0.18 in Rain Light Rain
12:32 PM 60.8 °F 59.0 °F 94% 29.97 in 2.5 mi ENE 6.9 mph - 0.20 in Rain Rain
12:44 PM 60.8 °F 59.0 °F 94% 29.97 in 3.0 mi ENE 8.1 mph - 0.21 in Rain Rain
12:51 PM 60.8 °F 59.0 °F 94% 29.97 in 3.0 mi ENE 6.9 mph - 0.22 in Rain Rain
12:53 PM 60.1 °F 59.0 °F 96% 29.97 in 2.5 mi ENE 6.9 mph - 0.23 in Rain Rain
1:31 PM 60.8 °F 59.0 °F 94% 29.95 in 1.2 mi East 4.6 mph - 0.14 in Rain Heavy Rain
1:53 PM 62.1 °F 60.1 °F 93% 29.94 in 1.5 mi East 6.9 mph - 0.24 in Rain Light Rain
1:57 PM 62.6 °F 60.8 °F 94% 29.95 in 3.0 mi ENE 8.1 mph - 0.00 in Rain Light Rain
2:36 PM 62.6 °F 60.8 °F 94% 29.94 in 4.0 mi East 5.8 mph - 0.00 in Rain Light Rain
2:44 PM 62.6 °F 60.8 °F 94% 29.94 in 1.8 mi East 6.9 mph - 0.01 in Rain Rain
2:50 PM 62.6 °F 60.8 °F 94% 29.94 in 2.0 mi ENE 5.8 mph - 0.01 in Rain Light Rain
2:53 PM 62.1 °F 60.1 °F 93% 29.94 in 2.5 mi NE 6.9 mph - 0.02 in Rain Light Rain
3:08 PM 62.6 °F 60.8 °F 94% 29.94 in 5.0 mi ENE 8.1 mph - 0.00 in   Overcast
3:15 PM 62.6 °F 60.8 °F 94% 29.94 in 3.0 mi ENE 8.1 mph - 0.00 in Rain Light Rain
3:53 PM 62.1 °F 60.1 °F 93% 29.93 in 5.0 mi ENE 9.2 mph - 0.01 in   Overcast
4:36 PM 62.6 °F 60.8 °F 94% 29.93 in 4.0 mi ENE 6.9 mph - 0.01 in Rain Light Rain
4:53 PM 63.0 °F 61.0 °F 93% 29.92 in 4.0 mi ENE 4.6 mph - 0.02 in Rain Light Rain
5:53 PM 63.0 °F 61.0 °F 93% 29.92 in 3.0 mi East 6.9 mph - 0.01 in   Overcast
6:53 PM 63.0 °F 61.0 °F 93% 29.94 in 5.0 mi ENE 4.6 mph - N/A   Overcast
7:48 PM 62.6 °F 60.8 °F 94% 29.95 in 2.5 mi East 3.5 mph - N/A   Overcast
8:53 PM 63.0 °F 61.0 °F 93% 29.95 in 2.0 mi East 4.6 mph - N/A   Overcast
9:01 PM 62.6 °F 60.8 °F 94% 29.96 in 1.5 mi ENE 3.5 mph - N/A   Overcast
9:53 PM 63.0 °F 61.0 °F 93% 29.97 in 1.8 mi Calm Calm - N/A   Overcast
10:53 PM 63.0 °F 62.1 °F 97% 29.97 in 1.2 mi Calm Calm - N/A   Overcast
11:53 PM 63.0 °F 62.1 °F 97% 29.97 in 1.0 mi NE 3.5 mph - N/A   Overcast